RH
11 12 13 13 14 15 15 16 16 17 18 19 20 22 25 27 29 33 37 41 43 42 40 38 35 33 33 35 40 45 51 56 60 62 63 63 64 65 65 64 64 64 69 78 83 87 90 92 94 98 103 106 107 110 111 106 102 98 88 82 80 76 73
9 10 11 11 12 13 14 14 15 14 15 16 17 18 20 22 24 26 27 30 34 36 38 40 40 39 36 34 35 37 40 45 50 54 58 61 61 62 62 61 62 62 66 74 80 85 88 88 89 92 97 103 107 109 109 107 109 111 103 95 92 87 80
7 7 8 9 10 11 12 13 14 14 14 13 14 15 16 17 19 21 23 24 26 27 29 31 34 38 40 40 40 39 38 40 42 45 49 54 56 59 60 59 58 58 61 69 75 81 85 87 88 89 90 95 100 105 108 109 109 110 108 106 105 100 92
5 5 6 6 7 8 9 10 12 13 14 14 13 13 14 15 15 16 18 20 22 24 25 25 26 28 31 35 39 41 43 43 43 43 43 45 48 51 53 54 54 55 56 60 67 73 78 82 85 86 87 89 93 97 102 107 110 110 109 109 109 108 104
4 4 4 4 5 5 6 7 8 10 11 12 13 14 14 14 14 14 14 15 17 19 21 23 24 25 26 27 30 32 36 39 42 44 44 45 45 46 48 50 50 51 51 54 60 64 69 73 77 79 82 84 87 89 91 97 103 108 110 109 110 109 104
4 4 4 4 4 4 5 5 5 6 8 9 10 12 13 14 14 14 13 14 14 15 16 18 20 22 24 26 27 27 27 29 31 35 38 42 44 46 48 50 51 52 52 53 56 59 63 67 70 74 77 79 81 81 82 85 90 96 101 105 108 108 105
4 4 4 4 4 4 4 5 5 5 5 6 7 8 10 11 12 13 13 13 14 14 15 16 16 17 19 22 25 26 26 26 26 27 29 31 35 38 43 47 51 54 57 58 59 60 62 65 67 69 72 74 76 78 79 80 82 86 89 94 101 105 108
4 4 4 4 4 4 4 4 5 5 5 5 5 6 7 8 9 10 11 12 13 14 15 16 16 16 17 18 19 21 24 26 27 27 27 27 27 29 31 35 39 44 49 54 58 61 63 66 69 70 71 70 71 73 75 76 78 82 85 88 91 95 101
4 4 4 4 4 4 4 4 4 4 5 5 5 5 5 6 7 8 9 10 11 12 13 14 15 16 17 17 17 18 19 21 23 25 27 27 28 27 27 27 27 29 33 38 44 50 55 61 66 69 71 73 75 75 75 73 74 78 83 85 86 88 91
4 4 4 4 4 4 4 4 4 4 4 4 5 5 5 5 6 6 7 8 9 10 10 11 13 14 16 17 17 18 18 18 19 20 22 24 27 28 29 29 28 27 26 27 30 34 38 44 50 52 56 63 70 75 80 80 79 79 81 82 83 83 85
5 5 5 5 5 5 4 4 4 4 4 4 4 5 5 5 5 6 6 6 7 8 8 9 10 11 13 14 15 16 17 17 18 18 19 20 23 25 27 29 31 31 31 29 28 27 27 28 31 33 36 40 46 53 61 69 73 76 80 82 85 87 89
5 5 5 5 5 5 5 5 5 5 5 4 4 4 4 5 5 6 6 6 6 7 7 8 8 9 10 10 12 13 14 16 17 18 20 20 21 22 23 25 27 30 32 33 33 31 29 27 25 25 25 26 28 32 37 43 49 55 60 67 74 82 91
4 5 5 5 5 5 5 5 5 5 5 5 5 5 5 5 5 6 6 6 6 6 6 7 7 8 9 9 9 9 10 12 13 15 17 19 20 21 21 22 23 25 27 29 31 32 33 32 31 29 27 25 24 25 26 28 32 35 37 41 46 54 65
4 4 4 4 4 5 5 5 5 5 5 6 5 5 5 6 6 6 6 5 5 6 6 7 7 7 7 7 7 8 8 8 10 11 14 16 18 19 20 20 21 22 23 24 26 27 29 30 32 33 32 31 29 28 27 26 27 27 28 30 31 34 39
3 3 4 4 4 4 4 4 5 5 5 5 5 5 6 6 6 6 6 6 6 6 6 6 7 7 6 7 7 7 7 8 8 10 11 12 14 15 15 16 17 18 20 21 22 23 24 25 27 28 30 32 33 34 34 32 31 30 28 29 30 31 34
3 3 3 3 4 4 4 4 4 4 4 4 5 5 5 6 6 6 6 7 6 7 7 7 6 6 6 6 7 7 7 8 8 9 9 10 10 11 11 11 13 14 15 17 18 19 20 22 23 24 26 27 29 32 33 33 32 32 31 31 32 33 35
3 3 3 4 4 4 4 4 4 4 4 4 4 5 5 5 6 6 7 7 7 7 7 7 6 6 6 6 6 7 7 8 9 9 9 8 8 9 9 9 10 10 11 12 13 14 16 17 19 21 21 22 24 26 28 28 28 28 29 30 31 33 35
3 3 3 3 3 4 4 4 4 4 4 4 4 5 5 5 5 6 6 6 7 7 7 8 7 7 7 7 7 7 7 8 9 9 8 8 8 9 9 9 9 9 9 10 10 11 12 13 14 15 15 16 18 20 22 23 23 22 23 26 27 29 31
3 3 3 3 3 3 4 4 4 4 4 4 5 5 5 4 4 5 6 6 7 7 7 8 8 7 7 7 7 8 8 9 9 8 8 8 8 9 9 9 9 9 9 9 10 10 10 10 11 11 11 11 12 13 14 16 17 17 18 20 22 23 25
3 3 3 3 3 3 4 4 4 4 4 5 5 5 5 5 5 5 6 6 7 7 7 7 7 7 7 8 8 8 9 9 9 9 9 9 9 9 9 9 9 9 9 9 9 9 9 9 9 10 10 10 10 10 11 11 11 11 12 14 15 16 17
3 3 3 3 3 3 4 4 4 4 5 5 5 5 5 5 6 6 6 6 6 6 7 7 7 7 7 8 8 8 9 10 10 9 9 9 9 9 9 9 9 9 9 9 9 10 10 10 10 10 9 9 9 9 9 10 10 9 9 9 10 11 11
3 3 3 3 4 4 4 4 4 4 5 5 5 5 5 6 7 6 6 6 6 6 7 7 7 7 7 8 8 8 9 9 10 10 10 10 10 9 9 9 9 9 9 9 9 9 9 9 9 9 9 9 9 9 9 9 9 9 9 9 9 9 9
3 3 4 4 4 4 4 4 4 4 5 5 5 5 6 6 7 7 6 7 7 7 7 7 7 7 8 8 8 8 9 9 10 10 10 10 10 10 10 10 9 9 9 9 9 9 9 9 9 9 9 9 9 9 9 9 9 9 8 9 9 9 9
3 3 4 4 4 4 4 4 5 5 5 5 5 5 6 6 6 7 7 7 7 7 7 8 8 8 8 8 8 9 9 9 10 10 10 10 10 11 11 10 10 10 10 10 9 9 9 9 9 9 9 9 9 9 9 9 9 9 9 8 8 8 8
4 4 4 4 4 4 4 5 5 5 6 6 5 6 6 6 7 7 7 7 7 7 8 8 8 8 8 9 9 9 9 9 9 10 10 10 11 11 11 11 11 11 11 10 10 10 9 9 9 9 9 9 9 9 9 9 9 9 9 9 9 8 8
4 4 4 4 5 5 5 5 6 6 6 6 6 6 6 6 7 7 7 7 7 7 8 8 8 9 9 9 9 9 9 9 9 9 10 10 10 10 11 11 11 11 11 11 11 10 10 10 9 9 9 8 8 8 8 8 8 8 8 8 8 8 8
4 4 4 5 5 5 5 6 6 6 6 6 6 6 6 7 7 7 7 7 7 7 8 8 8 9 9 9 9 9 9 9 9 9 9 9 9 9 9 10 10 10 10 10 10 10 10 9 9 9 8 8 8 8 7 7 7 7 7 6 7 7 6
4 5 5 5 5 6 6 6 6 6 6 6 6 6 6 7 7 7 7 7 7 7 8 8 8 8 8 9 9 9 9 9 9 9 9 8 8 8 8 8 8 9 9 8 8 9 8 8 8 8 7 7 7 7 7 7 6 6 6 5 5 6 5
5 5 5 5 6 6 6 6 6 6 6 6 6 6 7 7 7 7 7 8 8 8 8 8 8 8 9 9 9 9 9 9 9 9 9 9 9 9 9 9 9 8 9 8 8 8 8 8 8 8 7 7 7 7 7 7 6 6 6 6 5 5 5
5 5 6 6 6 6 6 6 6 7 7 7 7 7 7 7 7 7 8 8 8 8 8 8 8 8 9 9 9 9 9 9 9 9 9 9 9 9 9 9 9 9 9 9 9 9 9 9 9 8 8 8 7 7 7 7 7 6 6 6 6 5 5
6 6 6 6 6 7 7 7 7 7 7 7 7 7 7 7 7 7 8 8 8 8 8 8 8 8 9 9 9 9 9 9 9 9 9 9 9 9 9 9 9 9 9 9 9 9 9 9 9 8 8 8 7 7 7 7 7 6 6 6 6 5 5
6 6 7 7 7 7 7 7 7 8 8 8 8 7 7 8 8 8 8 8 8 8 8 8 8 8 9 9 9 9 9 9 9 9 9 9 9 9 9 9 9 9 9 9 9 9 9 9 9 8 8 8 8 7 7 7 7 6 6 6 6 6 6
7 7 7 7 7 8 8 8 8 8 8 8 8 8 8 8 8 8 8 8 9 9 8 9 9 9 9 9 9 9 9 9 9 9 9 9 9 9 9 9 9 10 10 9 9 9 9 9 9 8 8 8 8 7 7 7 7 7 6 7 7 6 6
7 7 7 7 7 8 8 8 8 8 8 9 9 9 9 9 9 9 9 9 9 9 9 9 9 9 9 9 9 10 10 10 10 10 10 10 10 10 10 10 10 10 10 9 9 9 9 9 9 8 8 8 8 8 8 8 7 7 7 7 7 7 7
7 7 7 7 8 8 8 9 9 9 9 9 9 9 10 10 10 10 10 10 10 10 10 10 10 10 10 10 9 9 10 10 10 10 10 10 10 10 10 10 10 10 10 10 10 10 10 9 10 9 9 9 9 9 9 9 8 8 8 8 8 7 7
8 8 8 8 8 8 9 9 9 10 10 10 10 10 10 11 11 11 11 11 11 11 11 11 11 11 10 10 10 10 10 11 11 11 11 11 11 11 11 11 11 11 11 11 11 11 11 11 11 10 10 10 10 9 9 9 8 8 8 8 8 7 7
Wind_Speed
118 120 121 123 124 125 125 125 126 126 127 126 126 126 128 129 130 131 132 132 133 133 132 131 130 130 130 130 130 131 132 133 133 133 133 133 133 133 133 132 131 130 128 128 129 130 130 130 129 129 128 127 127 127 127 128 129 130 129 128 128 128 127
116 117 118 120 122 123 124 125 126 126 127 127 127 127 127 128 129 130 131 132 133 134 133 133 132 131 131 130 130 130 131 131 132 133 133 133 133 133 133 133 132 131 130 129 130 131 131 132 131 131 131 130 130 130 130 129 130 130 131 130 130 129 129
113 114 115 117 118 120 122 123 124 125 126 126 126 127 127 128 128 129 130 131 132 133 134 133 133 133 133 132 132 132 131 131 131 132 132 132 133 133 133 133 133 132 131 131 131 132 132 133 133 133 133 133 132 132 132 132 132 132 132 132 131 131 131
111 111 111 112 114 116 118 119 121 123 125 125 125 126 126 127 128 128 129 130 131 132 133 133 133 133 133 134 134 134 133 133 133 132 132 132 132 132 132 133 133 132 132 131 132 133 133 134 134 134 135 135 134 134 134 134 134 134 134 133 133 132 132
109 109 109 109 110 111 113 114 116 119 121 123 124 125 125 126 126 127 127 128 129 130 131 132 133 133 134 134 135 135 135 135 134 134 134 133 133 132 132 132 133 132 132 131 131 132 133 134 135 135 136 136 136 136 136 136 136 136 136 136 135 135 134
105 105 106 106 107 107 109 110 111 113 115 118 120 122 123 124 125 125 125 125 126 127 128 129 130 132 133 134 135 135 135 135 135 135 135 135 134 134 134 133 133 133 133 132 132 132 132 133 134 135 136 137 137 137 137 137 137 137 137 137 137 136 136
102 102 102 102 103 104 105 106 107 108 109 112 114 117 119 121 122 123 123 123 123 124 125 126 127 129 130 132 133 134 135 135 135 135 135 135 136 135 135 135 135 135 134 134 133 133 133 133 133 134 135 136 136 137 137 137 137 138 138 138 138 138 138
99 99 99 100 100 100 101 102 104 104 105 107 109 111 113 115 118 119 121 121 121 122 122 123 124 126 127 128 130 131 133 134 135 135 135 135 136 136 136 136 136 136 136 136 135 135 135 134 134 135 135 135 136 136 136 136 137 137 138 139 139 139 139
95 95 96 97 97 97 98 99 100 100 102 103 104 106 107 109 111 114 116 118 119 119 120 120 121 123 124 125 126 128 129 131 132 133 134 135 135 136 136 136 135 135 135 136 137 137 137 137 137 137 137 136 136 136 136 136 136 136 137 138 139 139 139
92 92 92 93 94 94 95 96 96 97 98 99 100 101 102 103 105 107 110 112 114 116 117 117 118 120 121 122 123 124 125 126 127 128 130 131 133 134 135 135 135 135 135 136 136 137 138 138 139 139 138 138 138 138 138 138 138 137 137 137 138 138 138
89 89 89 89 89 90 92 93 94 94 95 95 96 97 98 99 100 102 104 106 109 111 113 115 116 117 118 119 120 121 121 122 122 123 125 126 129 131 133 134 135 136 136 136 137 137 137 137 138 138 138 138 139 139 139 140 140 139 139 139 138 138 138
86 86 86 86 86 86 87 89 90 91 92 93 93 93 93 95 96 98 99 101 103 106 109 111 112 114 115 116 117 117 118 119 120 121 121 122 124 126 128 130 132 133 135 136 137 137 137 137 136 136 136 136 137 138 138 139 140 140 140 140 140 140 140
82 83 83 84 83 83 84 85 86 87 89 90 91 91 90 91 92 94 96 98 99 100 102 105 107 109 112 113 114 114 115 116 116 118 119 120 121 122 124 125 127 128 131 133 134 136 136 137 137 137 136 135 135 135 136 137 138 139 140 140 140 140 141
79 80 80 80 81 81 81 82 83 84 85 86 87 87 87 88 90 91 93 94 95 95 97 99 102 105 107 108 109 110 111 111 113 114 116 118 120 121 121 122 123 124 126 127 129 131 133 134 136 136 136 136 135 135 135 135 136 137 138 138 139 139 140
75 76 77 77 78 78 79 80 81 81 82 82 82 82 83 85 87 89 90 90 91 92 94 97 98 100 101 102 103 105 106 107 109 111 114 116 118 119 119 120 120 121 122 123 125 126 128 130 131 132 134 134 135 135 136 136 136 136 137 137 137 138 139
71 71 72 73 74 75 76 77 78 79 79 79 79 78 79 82 84 85 86 87 88 90 92 94 95 95 95 96 97 99 101 102 105 108 111 113 115 116 116 117 118 119 120 121 122 122 124 125 126 128 129 130 132 133 135 136 136 136 137 137 137 138 139
68 68 68 69 70 71 72 73 75 76 76 77 76 76 78 80 80 81 82 83 86 88 89 90 91 92 91 92 93 94 95 97 100 104 107 108 109 111 113 114 116 117 118 119 119 120 121 123 124 125 126 126 128 130 131 133 133 134 135 136 137 138 139
66 65 65 66 67 68 68 69 71 72 73 74 74 75 77 78 77 76 78 79 82 84 86 87 88 89 89 89 89 90 90 93 96 100 102 103 104 106 108 110 111 113 114 116 117 118 119 121 122 123 123 124 125 126 127 129 129 130 131 133 134 135 137
63 62 63 64 65 65 65 66 67 68 69 70 71 73 75 75 73 73 75 76 79 81 83 84 85 85 86 85 86 86 87 90 93 95 97 97 99 101 103 104 106 108 110 111 113 115 116 118 119 121 121 122 123 124 125 126 126 127 128 129 131 132 134
59 59 60 61 62 62 63 63 64 65 66 67 69 70 71 71 71 71 72 74 77 79 81 81 81 81 82 82 82 83 85 87 90 92 92 93 95 97 98 99 101 103 104 106 108 109 111 113 114 116 118 119 120 121 122 123 124 124 125 126 128 129 130
56 56 57 58 58 59 60 61 62 62 63 65 66 67 67 67 68 69 71 72 74 76 77 78 78 78 79 80 80 81 82 84 87 88 89 91 93 94 95 95 97 98 99 101 102 104 106 107 109 111 112 114 116 117 118 119 120 121 122 123 124 126 127
53 53 53 53 54 55 57 58 59 60 61 62 64 64 63 64 66 67 69 70 71 72 74 75 76 76 77 78 78 79 80 81 83 85 86 88 90 91 92 93 93 94 95 96 97 99 100 102 103 105 107 108 110 111 113 114 115 116 117 118 119 121 122
50 50 50 50 51 52 53 54 56 57 58 60 61 60 60 62 64 65 66 66 68 69 71 72 73 74 75 76 76 77 78 79 80 82 83 85 86 88 89 90 91 91 92 93 94 95 96 97 98 100 101 103 104 106 107 109 109 110 111 113 114 115 116
48 48 47 47 48 49 50 51 52 54 56 57 58 57 58 60 61 61 62 64 65 66 67 68 70 71 72 73 74 75 76 77 78 79 80 82 84 85 86 88 88 89 90 91 92 92 93 94 95 96 97 98 100 101 103 104 105 106 106 107 108 109 111
46 46 46 46 46 47 48 49 50 51 53 54 55 55 56 57 58 58 59 61 62 63 64 65 66 68 69 70 72 73 73 74 76 77 78 79 81 82 84 85 86 87 88 89 90 90 91 92 92 93 94 95 96 97 98 100 101 101 102 103 104 105 106
43 44 44 44 44 45 46 46 48 49 50 52 52 53 54 54 55 56 57 58 59 60 61 62 64 65 66 68 69 70 71 72 73 74 75 77 78 80 81 83 84 85 86 87 88 89 90 90 91 91 92 93 93 94 95 96 97 98 98 99 100 101 102
41 41 42 42 42 43 44 45 46 47 48 49 50 51 51 51 52 54 55 56 57 58 59 60 62 63 64 65 66 68 68 69 70 71 73 74 76 77 79 80 81 83 84 85 86 87 88 89 89 90 90 91 92 92 93 94 94 95 95 96 97 98 99
39 39 39 39 40 41 42 43 43 44 45 47 48 48 48 49 50 51 52 53 55 56 57 58 59 61 62 63 64 65 66 67 68 69 70 71 73 74 75 77 78 80 81 82 83 84 85 86 87 87 88 89 89 90 91 91 92 92 93 93 94 95 96
36 36 37 37 38 39 40 40 41 42 43 44 45 46 46 46 47 48 50 51 52 53 55 56 57 58 60 61 62 63 64 65 66 67 68 69 70 71 72 74 75 76 77 78 80 81 82 83 84 84 85 86 87 88 88 89 90 90 91 91 92 92 93
34 34 34 35 36 37 38 38 39 40 41 42 44 44 44 45 46 46 47 48 50 51 52 54 55 56 57 58 60 61 62 63 64 65 66 67 68 69 70 71 72 73 74 75 76 77 79 80 81 82 83 84 85 86 86 87 88 88 89 89 89 90 90
32 32 33 34 35 35 36 36 37 38 39 40 42 42 43 43 44 45 46 46 47 48 50 51 52 53 54 56 57 58 60 61 62 63 64 65 65 66 67 68 69 70 71 73 74 75 76 77 78 79 80 81 82 83 83 84 85 85 86 86 86 87 87
31 31 31 32 33 34 34 35 35 36 37 38 39 41 41 42 42 43 44 45 45 46 47 48 49 51 52 53 54 56 57 58 59 60 61 62 63 64 65 66 67 68 69 70 71 72 74 75 76 76 77 78 79 80 80 81 81 82 82 83 83 83 84
30 30 30 31 32 32 33 33 34 34 35 36 38 39 40 41 41 42 43 43 44 45 46 47 48 49 50 51 52 53 54 55 56 57 58 59 60 61 62 63 63 65 66 67 68 69 71 72 72 73 74 75 76 76 77 77 78 78 78 79 80 80 80
30 30 30 30 31 31 32 32 33 33 34 35 36 37 38 39 40 40 41 42 43 43 44 45 46 47 48 49 50 51 52 52 53 54 55 56 56 57 59 59 61 62 63 64 65 66 67 68 69 70 70 71 72 73 73 74 74 74 75 76 76 77 77
29 30 30 30 30 30 31 31 32 32 33 34 34 35 36 37 38 39 39 40 41 42 43 44 45 46 47 48 48 49 50 50 51 52 53 53 54 55 56 57 58 59 60 61 62 63 64 65 66 66 67 68 69 70 70 71 71 71 72 72 73 73 74
28 29 29 29 29 29 30 30 31 31 32 33 34 34 35 36 36 37 38 39 40 41 41 42 43 44 45 46 47 47 48 49 49 50 51 52 53 54 55 55 56 57 58 59 60 61 62 62 63 64 65 66 66 67 68 68 69 69 69 70 70 71 71
Wind_Direction
260 259 259 259 259 258 258 257 256 256 255 254 252 251 251 251 251 252 252 252 252 252 252 253 253 252 252 252 252 252 252 252 252 252 252 251 251 251 251 251 250 249 248 247 247 247 247 247 248 248 249 250 251 252 253 255 256 256 256 255 255 254 254
260 259 259 259 258 258 258 258 257 257 256 255 254 253 252 251 251 251 251 251 252 252 252 252 252 253 253 253 252 252 252 252 252 252 252 252 252 252 252 251 251 250 250 249 248 248 248 248 248 248 248 249 249 250 251 252 254 255 256 256 256 256 255
261 259 259 258 258 258 258 258 258 257 257 257 256 255 254 253 252 251 251 251 251 252 252 252 252 252 252 252 253 253 252 252 252 252 252 252 252 252 252 252 252 251 251 250 250 249 249 249 249 248 248 248 248 249 250 251 252 253 254 255 256 256 257
263 261 260 259 258 258 257 257 257 257 257 257 257 256 256 255 254 253 252 251 251 251 251 252 252 252 252 252 252 252 252 253 252 252 252 252 252 252 252 252 252 252 251 251 250 250 250 250 250 249 249 249 248 248 249 249 250 251 252 253 254 255 256
264 263 262 261 260 259 258 257 257 257 257 257 257 257 257 256 255 255 254 253 252 252 251 251 251 252 252 252 252 252 252 252 252 253 253 252 252 252 252 252 253 253 252 252 251 251 251 251 251 250 250 250 249 249 249 249 249 250 251 252 253 254 255
264 263 263 262 262 261 260 258 257 257 257 257 257 257 257 257 257 256 255 255 254 253 253 252 252 252 252 252 252 252 252 252 252 252 252 252 252 252 252 252 252 253 253 252 252 252 252 252 252 251 251 251 251 251 250 250 250 250 250 251 252 252 253
264 264 263 263 262 261 261 260 259 258 257 257 256 256 256 257 257 257 257 256 255 255 254 254 253 252 252 252 252 252 252 252 252 252 252 252 252 252 252 253 253 253 253 253 252 252 252 252 252 252 252 252 252 252 252 251 251 251 251 251 251 252 252
264 264 264 264 263 262 261 261 260 260 259 258 257 256 256 256 256 257 257 257 256 256 255 255 254 254 253 253 252 252 252 252 252 252 252 253 253 253 253 252 253 253 253 253 253 253 252 252 252 252 252 253 253 253 252 252 252 252 252 252 252 252 252
265 264 264 264 264 263 262 262 261 260 259 259 258 257 257 256 256 256 256 257 257 257 256 255 255 255 254 254 253 253 252 252 252 252 252 253 253 253 253 253 253 253 253 253 253 253 253 253 252 252 252 252 252 253 253 253 253 253 253 253 253 253 253
266 265 264 263 263 263 263 263 262 261 260 259 259 258 257 257 256 256 255 256 256 256 256 256 256 255 255 254 254 254 253 253 253 253 253 253 253 253 253 254 254 254 254 253 253 253 253 253 253 253 253 252 252 252 253 253 253 253 253 253 253 253 254
266 265 265 264 263 262 262 262 262 262 261 260 260 259 258 258 257 256 255 255 255 255 255 255 255 255 255 255 255 254 254 254 254 254 253 253 253 253 253 253 253 253 254 254 254 253 253 253 253 253 253 253 253 253 253 253 253 253 253 253 254 254 254
265 265 265 264 263 262 262 261 261 261 261 261 260 259 259 258 258 257 256 255 254 254 254 254 254 255 255 255 255 255 255 255 254 254 254 253 253 253 253 253 253 253 253 253 254 254 254 254 254 253 253 253 253 253 254 254 254 254 254 254 254 254 254
265 265 264 264 264 263 262 261 261 260 260 260 260 260 259 258 258 257 257 256 255 254 254 254 254 254 254 254 254 254 254 254 254 254 254 254 254 254 253 253 253 253 253 253 253 253 254 254 254 254 254 254 253 253 253 253 254 254 254 254 254 254 254
265 265 264 264 264 263 263 262 261 260 259 259 259 259 259 259 258 257 257 256 256 256 255 254 253 253 253 253 253 254 254 254 254 254 255 255 255 254 254 254 253 253 253 253 253 253 253 254 254 254 254 254 254 254 254 253 253 253 254 254 254 254 254
264 264 264 264 263 263 263 262 262 261 261 260 259 259 258 257 257 257 257 257 256 256 255 254 253 253 253 253 253 253 254 254 254 254 254 254 254 254 254 254 254 254 254 253 253 253 253 254 254 254 254 254 255 254 254 254 254 254 253 253 253 254 254
265 264 264 263 263 262 262 262 262 262 261 261 260 259 258 257 256 256 256 256 256 255 255 255 255 254 254 253 253 253 253 253 253 253 253 253 253 254 254 254 255 255 254 254 254 254 254 254 254 254 254 254 254 254 254 254 254 254 254 253 253 253 253
267 266 265 263 262 261 261 260 260 260 261 261 260 260 258 257 256 255 255 255 255 255 255 255 255 255 255 254 253 253 253 253 253 253 253 253 253 253 254 254 254 254 255 255 255 255 255 255 255 255 255 254 254 254 254 254 254 254 254 254 254 253 253
269 267 266 264 263 261 260 260 259 259 260 260 260 259 258 258 257 256 256 255 255 255 255 255 255 255 255 254 254 254 253 253 253 253 253 253 253 253 253 254 254 254 254 255 255 255 255 255 255 255 255 255 255 255 255 255 255 255 255 255 255 254 254
268 267 266 264 263 262 261 260 260 259 259 259 259 258 258 259 258 257 256 256 256 255 255 255 255 255 255 255 254 254 253 253 253 253 253 254 254 253 253 253 254 254 254 254 254 255 255 255 255 255 256 256 256 255 255 255 255 255 255 255 255 255 255
267 266 265 264 263 263 262 261 260 260 259 259 258 258 258 259 258 257 256 255 255 255 255 255 255 255 255 255 254 254 253 253 253 253 254 254 254 254 254 253 254 254 254 254 254 254 255 255 255 255 256 256 256 256 256 256 256 256 255 255 256 255 255
267 266 264 263 263 262 262 261 261 260 260 259 259 259 259 259 258 257 256 255 255 255 256 256 256 256 255 255 254 254 253 253 253 253 254 254 254 254 254 254 254 254 254 254 254 254 255 255 255 255 256 256 256 256 256 256 256 256 256 256 256 256 256
268 267 265 264 263 262 261 261 261 261 261 260 260 260 259 258 257 257 256 256 256 256 256 256 256 256 255 255 255 254 254 253 253 254 254 254 254 255 255 255 255 255 255 255 255 255 255 255 255 256 256 256 256 257 257 257 257 257 257 257 257 257 257
270 268 267 265 264 262 261 261 261 261 260 260 260 260 259 258 257 257 257 257 257 256 256 256 256 256 256 256 255 255 254 254 254 254 254 255 255 255 256 256 256 256 256 256 256 256 255 255 256 256 256 257 257 257 257 257 257 257 257 257 257 257 257
272 270 268 266 265 263 262 261 261 260 260 261 260 260 259 258 257 257 257 257 257 257 257 257 256 256 256 256 256 255 255 255 254 254 255 255 255 256 256 257 257 257 258 257 257 257 257 257 256 256 256 256 257 257 257 258 258 258 258 258 258 258 258
272 271 269 268 266 265 263 262 262 261 260 260 260 259 258 258 258 257 257 256 257 257 257 257 257 257 257 256 256 256 256 255 255 255 255 255 255 256 256 256 257 257 258 258 258 259 258 258 258 258 258 257 257 258 258 258 258 258 258 258 258 258 258
272 271 270 268 267 266 265 263 262 261 260 260 260 259 258 258 258 257 257 256 256 256 256 256 256 256 256 256 256 256 256 255 255 255 255 255 255 256 256 256 256 257 257 258 258 259 259 259 260 260 260 260 260 259 259 259 259 259 259 259 259 259 259
272 271 270 269 268 267 265 264 263 262 262 261 260 259 258 258 257 257 257 256 256 256 256 256 256 256 256 256 256 256 256 256 255 255 255 255 255 255 256 256 256 257 257 258 258 259 259 260 260 261 261 261 261 261 261 261 261 261 261 261 261 261 260
273 272 271 270 268 267 266 265 264 263 263 262 261 260 259 259 258 257 257 257 256 256 256 256 256 256 256 256 256 256 256 256 256 256 256 256 255 256 256 256 256 257 257 258 258 259 260 260 261 261 261 262 262 262 262 262 262 262 262 262 262 261 261
275 274 272 271 269 268 267 266 265 265 264 263 263 262 261 260 259 258 258 257 257 257 257 256 256 256 257 257 257 257 257 257 257 257 257 257 257 257 257 257 257 257 258 258 259 259 260 260 261 261 262 262 262 262 263 263 263 263 263 263 263 262 262
279 277 275 273 271 270 269 267 266 266 265 264 264 263 262 261 260 259 258 258 257 257 257 256 256 256 256 257 257 257 257 258 258 258 258 258 258 258 259 259 259 260 260 260 261 261 261 261 262 262 262 263 263 263 263 264 264 264 264 264 264 264 264
281 279 277 275 274 272 271 269 268 267 266 266 265 265 264 263 262 261 261 260 259 258 258 258 258 257 257 257 257 258 258 258 259 259 259 259 260 260 260 260 261 261 261 261 262 262 262 262 262 263 263 263 264 264 264 264 265 265 265 265 265 265 265
283 281 279 277 276 274 272 270 269 267 267 266 266 266 265 264 264 263 262 262 261 260 260 259 259 259 259 258 258 258 258 259 259 259 260 260 260 260 261 261 261 261 262 262 262 262 263 263 263 263 263 264 264 264 264 265 265 265 265 266 265 265 265
282 280 279 277 276 274 273 272 270 269 268 267 266 266 266 265 265 264 264 263 263 263 262 262 261 261 261 260 260 260 260 260 260 260 261 261 261 261 261 261 261 261 262 262 262 262 262 263 263 263 264 264 264 265 265 265 265 265 266 266 266 266 266
283 281 280 278 277 276 275 275 274 272 271 270 269 268 268 267 267 267 266 265 265 264 264 264 263 263 263 262 262 262 262 262 262 262 262 262 262 262 262 262 262 262 262 262 262 262 263 263 263 264 264 265 265 265 266 266 266 266 266 266 266 267 267
286 284 282 281 279 278 277 276 276 275 274 272 271 270 270 269 269 268 268 267 266 265 265 264 264 264 264 264 264 264 264 264 264 263 263 263 263 263 263 263 263 263 263 263 264 264 264 264 265 265 266 266 266 266 267 267 267 267 268 268 268 268 268
289 287 285 283 281 279 278 277 276 275 274 273 272 271 270 269 269 268 268 267 267 267 266 266 265 265 265 265 265 265 265 265 265 265 265 265 265 265 265 265 265 265 265 265 266 266 266 266 266 266 266 267 267 267 268 268 268 268 268 269 269 269 269